London City, United Kingdom

9:00 PM BST on April 21, 2018 (GMT +0100)
London City

Weather History for EGLC - May, 2013

Change the Weather History Date:

Sunday, May 19, 2013

  Actual Average Record
Temperature  
Mean Temperature 55 °F -  
Max Temperature 62 °F 61 °F 77 °F (2004)
Min Temperature 48 °F 50 °F 42 °F (2008)
Degree Days  
Heating Degree Days 10    
Growing Degree Days 5 (Base 50)    
Moisture  
Dew Point 45 °F    
Average Humidity 70    
Maximum Humidity 87    
Minimum Humidity 52    
Precipitation  
Precipitation 0.00 in - - ()
Sea Level Pressure  
Sea Level Pressure 29.86 in    
Wind  
Wind Speed 5 mph ()    
Max Wind Speed 12 mph    
Max Gust Speed -    
Visibility 5.6 miles    
Events      
Averages and records for this station are not official NWS values.
T = Trace of Precipitation, MM = Missing Value Source: Averaged Metar Reports

Daily Weather History Graph

Daily Weather History Graph

Search for Another Location

Airport or City:

Astronomy

May. 19, 2013 Rise Set
Actual Time 5:02 AM BST 8:51 PM BST
Civil Twilight 4:19 AM BST 9:33 PM BST
Nautical Twilight 3:20 AM BST 10:33 PM BST
Astronomical Twilight 1:42 AM BST 12:16 AM BST
Moon 1:58 PM BST (5/19) 2:03 AM BST (5/19)
Length of Visible Light 17h 14m
Length of Day
15h 49m
Waxing Gibbous, 63% of the Moon is Illuminated
May 19
Waxing Gibbous
May 25
Full
May 31
Last Quarter
Jun 8
New
Jun 16
First Quarter

Hourly Weather History & Observations

Time (BST) Temp. Dew Point Humidity Pressure Visibility Wind Dir Wind Speed Gust Speed Precip Events Conditions
12:20 AM 51.8 °F 46.4 °F 82% 29.80 in 6.2 mi ENE 3.5 mph - N/A   Unknown
12:50 AM 51.8 °F 44.6 °F 76% 29.80 in 6.2 mi NNE 2.3 mph - N/A   Unknown
1:20 AM 50.0 °F 44.6 °F 82% 29.80 in 6.2 mi ESE 3.5 mph - N/A   Unknown
1:50 AM 50.0 °F 44.6 °F 82% 29.80 in 5.6 mi Variable 3.5 mph - N/A   Unknown
2:20 AM 50.0 °F 44.6 °F 82% 29.80 in 5.6 mi ENE 3.5 mph - N/A   Unknown
2:50 AM 50.0 °F 44.6 °F 82% 29.80 in 4.3 mi ENE 3.5 mph - N/A   Unknown
3:20 AM 50.0 °F 44.6 °F 82% 29.80 in 3.7 mi ENE 3.5 mph - N/A   Unknown
3:50 AM 48.2 °F 44.6 °F 87% 29.83 in 3.1 mi Variable 3.5 mph - N/A   Mist
4:20 AM 48.2 °F 44.6 °F 87% 29.83 in 3.1 mi East 3.5 mph - N/A   Mist
4:50 AM 48.2 °F 44.6 °F 87% 29.83 in 3.1 mi East 3.5 mph - N/A   Mist
5:20 AM 48.2 °F 44.6 °F 87% 29.83 in 3.7 mi ENE 3.5 mph - N/A   Unknown
5:50 AM 48.2 °F 44.6 °F 87% 29.83 in 3.7 mi Variable 2.3 mph - N/A   Unknown
6:20 AM 48.2 °F 44.6 °F 87% 29.83 in 4.3 mi North 2.3 mph - N/A   Unknown
6:50 AM 50.0 °F 44.6 °F 82% 29.86 in 4.3 mi Variable 2.3 mph - N/A   Unknown
7:20 AM 50.0 °F 44.6 °F 82% 29.86 in 4.3 mi Variable 3.5 mph - N/A   Unknown
7:50 AM 51.8 °F 44.6 °F 76% 29.86 in 5.6 mi Variable 3.5 mph - N/A   Unknown
8:20 AM 51.8 °F 44.6 °F 76% 29.86 in 6.2 mi Variable 3.5 mph - N/A   Unknown
8:50 AM 53.6 °F 44.6 °F 72% 29.89 in 6.2 mi ENE 5.8 mph - N/A   Unknown
9:20 AM 53.6 °F 44.6 °F 72% 29.89 in 6.2 mi NE 6.9 mph - N/A   Unknown
9:50 AM 55.4 °F 44.6 °F 67% 29.86 in 6.2 mi NE 6.9 mph - N/A   Unknown
10:20 AM 55.4 °F 44.6 °F 67% 29.89 in 6.2 mi ENE 10.4 mph - N/A   Mostly Cloudy
10:50 AM 57.2 °F 44.6 °F 63% 29.89 in 6.2 mi East 11.5 mph - N/A   Overcast
11:20 AM 57.2 °F 46.4 °F 67% 29.89 in 6.2 mi East 6.9 mph - N/A   Mostly Cloudy
11:50 AM 57.2 °F 44.6 °F 63% 29.89 in 6.2 mi East 6.9 mph - N/A   Overcast
12:20 PM 59.0 °F 46.4 °F 63% 29.89 in 6.2 mi East 4.6 mph - N/A   Mostly Cloudy
12:50 PM 59.0 °F 44.6 °F 59% 29.89 in 6.2 mi ENE 5.8 mph - N/A   Mostly Cloudy
1:20 PM 59.0 °F 44.6 °F 59% 29.89 in 6.2 mi North 6.9 mph - N/A   Overcast
1:50 PM 60.8 °F 44.6 °F 55% 29.89 in 6.2 mi North 6.9 mph - N/A   Mostly Cloudy
2:20 PM 60.8 °F 46.4 °F 59% 29.89 in 6.2 mi North 5.8 mph - N/A   Scattered Clouds
2:50 PM 62.6 °F 44.6 °F 52% 29.89 in 6.2 mi North 8.1 mph - N/A   Mostly Cloudy
3:20 PM 62.6 °F 46.4 °F 55% 29.89 in 6.2 mi NW 8.1 mph - N/A   Scattered Clouds
3:50 PM 62.6 °F 46.4 °F 55% 29.86 in 6.2 mi NNW 8.1 mph - N/A   Partly Cloudy
4:20 PM 62.6 °F 46.4 °F 55% 29.86 in 6.2 mi Variable 8.1 mph - N/A   Partly Cloudy
4:50 PM 62.6 °F 44.6 °F 52% 29.86 in 6.2 mi NNE 10.4 mph - N/A   Scattered Clouds
5:20 PM 62.6 °F 46.4 °F 55% 29.86 in 6.2 mi NNE 11.5 mph - N/A   Scattered Clouds
5:50 PM 62.6 °F 44.6 °F 52% 29.86 in 6.2 mi North 10.4 mph - N/A   Partly Cloudy
6:20 PM 62.6 °F 44.6 °F 52% 29.86 in 6.2 mi North 10.4 mph - N/A   Partly Cloudy
6:50 PM 62.6 °F 44.6 °F 52% 29.89 in 6.2 mi North 9.2 mph - N/A   Partly Cloudy
7:20 PM 62.6 °F 46.4 °F 55% 29.89 in 6.2 mi North 8.1 mph - N/A   Partly Cloudy
7:50 PM 62.6 °F 46.4 °F 55% 29.89 in 6.2 mi North 8.1 mph - N/A   Partly Cloudy
8:20 PM 57.2 °F 46.4 °F 67% 29.89 in - East 8.1 mph - N/A   Clear
8:50 PM 55.4 °F 46.4 °F 72% 29.89 in - East 8.1 mph - N/A   Clear
9:20 PM 53.6 °F 46.4 °F 77% 29.89 in - East 4.6 mph - N/A   Clear
9:50 PM 53.6 °F 46.4 °F 77% 29.92 in 6.2 mi ENE 4.6 mph - N/A   Scattered Clouds
10:20 PM 53.6 °F 46.4 °F 77% 29.92 in 6.2 mi ENE 3.5 mph - N/A   Scattered Clouds
10:50 PM 53.6 °F 46.4 °F 77% 29.92 in 6.2 mi Calm Calm - N/A   Scattered Clouds
11:20 PM 53.6 °F 46.4 °F 77% 29.89 in 6.2 mi Calm Calm - N/A   Scattered Clouds
11:50 PM 53.6 °F 46.4 °F 77% 29.89 in 6.2 mi Calm Calm - N/A   Mostly Cloudy